Meteo pe oră la Bolshie Ozerki

Astăzi, 10 Mai, Luni

Timp Temperatura Precipitaţii Vânt Presiune Umiditate
00:00 +8°C° 0 mm 5 m/s 754 mmHg 65%
01:00 +8°C° 0 mm 5 m/s 755 mmHg 65%
02:00 +8°C° 0 mm 5 m/s 755 mmHg 66%
03:00 +7°C° 0 mm 5 m/s 755 mmHg 69%
04:00 +6°C° 0 mm 4 m/s 755 mmHg 73%
05:00 +5°C° 0 mm 4 m/s 755 mmHg 77%
06:00 +7°C° 0 mm 5 m/s 755 mmHg 74%
07:00 +9°C° 0 mm 5 m/s 755 mmHg 71%
08:00 +12°C° 0 mm 5 m/s 755 mmHg 68%
09:00 +13°C° 0 mm 6 m/s 755 mmHg 64%
10:00 +15°C° 0 mm 6 m/s 755 mmHg 61%
11:00 +17°C° 0 mm 6 m/s 755 mmHg 57%
12:00 +19°C° 0 mm 6 m/s 755 mmHg 55%
13:00 +18°C° 0 mm 7 m/s 755 mmHg 54%
14:00 +20°C° 0 mm 7 m/s 755 mmHg 52%
15:00 +20°C° 0 mm 6 m/s 754 mmHg 55%
16:00 +20°C° 0 mm 6 m/s 754 mmHg 58%
17:00 +20°C° 0 mm 5 m/s 754 mmHg 60%
18:00 +17°C° 0 mm 5 m/s 754 mmHg 67%
19:00 +15°C° 0 mm 4 m/s 754 mmHg 73%
20:00 +13°C° 0 mm 3 m/s 754 mmHg 79%
21:00 +12°C° 0 mm 4 m/s 755 mmHg 80%
22:00 +11°C° 0 mm 4 m/s 755 mmHg 82%
23:00 +11°C° 0 mm 4 m/s 755 mmHg 84%

Mâine, 11 Mai, Marţi

Timp Temperatura Precipitaţii Vânt Presiune Umiditate
00:00 +10°C° 0 mm 4 m/s 755 mmHg 85%
01:00 +10°C° 0 mm 4 m/s 755 mmHg 86%
02:00 +8°C° 0 mm 4 m/s 755 mmHg 87%
03:00 +8°C° 0 mm 4 m/s 755 mmHg 86%
04:00 +8°C° 0 mm 4 m/s 755 mmHg 85%
05:00 +7°C° 0 mm 5 m/s 755 mmHg 84%
06:00 +9°C° 0 mm 5 m/s 755 mmHg 78%
07:00 +10°C° 0 mm 6 m/s 755 mmHg 73%
08:00 +13°C° 0 mm 6 m/s 755 mmHg 68%
09:00 +14°C° 0 mm 6 m/s 755 mmHg 62%
10:00 +16°C° 0 mm 7 m/s 755 mmHg 57%
11:00 +17°C° 0 mm 7 m/s 755 mmHg 51%
12:00 +18°C° 0 mm 7 m/s 754 mmHg 48%
13:00 +19°C° 0 mm 6 m/s 754 mmHg 45%
14:00 +20°C° 0 mm 6 m/s 754 mmHg 43%
15:00 +20°C° 0 mm 6 m/s 754 mmHg 46%
16:00 +19°C° 0 mm 6 m/s 753 mmHg 50%
17:00 +19°C° 0 mm 5 m/s 753 mmHg 53%
18:00 +16°C° 0 mm 5 m/s 753 mmHg 61%
19:00 +15°C° 0 mm 4 m/s 752 mmHg 68%
20:00 +13°C° 0 mm 4 m/s 752 mmHg 75%
21:00 +13°C° 0 mm 4 m/s 752 mmHg 75%
22:00 +13°C° 0 mm 4 m/s 752 mmHg 75%
23:00 +12°C° 0 mm 5 m/s 752 mmHg 75%

Poimâine, 12 Mai, Miercuri

Timp Temperatura Precipitaţii Vânt Presiune Umiditate
00:00 +12°C° 0 mm 4 m/s 752 mmHg 80%
01:00 +11°C° 0 mm 4 m/s 752 mmHg 84%
02:00 +11°C° 0 mm 4 m/s 752 mmHg 88%
03:00 +11°C° 0 mm 4 m/s 752 mmHg 90%
04:00 +11°C° 0 mm 4 m/s 752 mmHg 93%
05:00 +10°C° 0 mm 5 m/s 752 mmHg 95%
06:00 +10°C° 0 mm 5 m/s 752 mmHg 87%
07:00 +11°C° 0 mm 6 m/s 752 mmHg 79%
08:00 +12°C° 0 mm 7 m/s 752 mmHg 71%
09:00 +14°C° 0 mm 7 m/s 752 mmHg 66%
10:00 +13°C° 0 mm 8 m/s 752 mmHg 62%
11:00 +15°C° 0 mm 8 m/s 751 mmHg 57%
12:00 +16°C° 0 mm 8 m/s 751 mmHg 55%
13:00 +16°C° 0 mm 7 m/s 751 mmHg 53%
14:00 +17°C° 0 mm 7 m/s 751 mmHg 51%
15:00 +16°C° 0 mm 7 m/s 750 mmHg 53%
16:00 +16°C° 0 mm 6 m/s 750 mmHg 56%
17:00 +16°C° 0 mm 6 m/s 749 mmHg 58%
18:00 +14°C° 0 mm 5 m/s 749 mmHg 64%
19:00 +13°C° 0 mm 4 m/s 749 mmHg 70%
20:00 +11°C° 0 mm 3 m/s 748 mmHg 76%
21:00 +10°C° 0 mm 3 m/s 748 mmHg 79%
22:00 +9°C° 0 mm 2 m/s 748 mmHg 82%
23:00 +8°C° 0 mm 2 m/s 747 mmHg 85%

13 Mai, Joi

Timp Temperatura Precipitaţii Vânt Presiune Umiditate
00:00 +8°C° 0 mm 2 m/s 747 mmHg 85%
01:00 +8°C° 0 mm 2 m/s 746 mmHg 85%
02:00 +8°C° 0 mm 2 m/s 745 mmHg 85%
03:00 +8°C° 0 mm 2 m/s 745 mmHg 84%
04:00 +8°C° 0 mm 2 m/s 744 mmHg 83%
05:00 +8°C° 0 mm 2 m/s 744 mmHg 83%
06:00 +9°C° 0 mm 3 m/s 744 mmHg 81%
07:00 +10°C° 0 mm 3 m/s 744 mmHg 78%
08:00 +11°C° 0 mm 4 m/s 743 mmHg 76%
09:00 +12°C° 0 mm 5 m/s 743 mmHg 70%
10:00 +13°C° 0 mm 6 m/s 743 mmHg 64%
11:00 +14°C° 0 mm 7 m/s 743 mmHg 58%
12:00 +14°C° 0 mm 7 m/s 743 mmHg 63%
13:00 +12°C° 0 mm 7 m/s 743 mmHg 67%
14:00 +11°C° 0 mm 7 m/s 742 mmHg 72%
15:00 +11°C° 0.1 mm 6 m/s 742 mmHg 75%
16:00 +11°C° 0.1 mm 6 m/s 743 mmHg 79%
17:00 +11°C° 0.1 mm 6 m/s 743 mmHg 83%
18:00 +11°C° 0.2 mm 6 m/s 743 mmHg 84%
19:00 +11°C° 0.2 mm 6 m/s 743 mmHg 86%
20:00 +11°C° 0.2 mm 6 m/s 743 mmHg 87%
21:00 +11°C° 0 mm 6 m/s 743 mmHg 88%
22:00 +10°C° 0 mm 6 m/s 743 mmHg 88%
23:00 +10°C° 0 mm 6 m/s 743 mmHg 89%

14 Mai, Vineri

Timp Temperatura Precipitaţii Vânt Presiune Umiditate
00:00 +10°C° 0 mm 5 m/s 743 mmHg 91%
01:00 +10°C° 0 mm 4 m/s 743 mmHg 92%
02:00 +10°C° 0 mm 4 m/s 743 mmHg 94%
03:00 +10°C° 0.1 mm 3 m/s 743 mmHg 95%
04:00 +10°C° 0.1 mm 3 m/s 743 mmHg 96%
05:00 +10°C° 0.1 mm 2 m/s 743 mmHg 97%
06:00 +12°C° 0.2 mm 2 m/s 742 mmHg 96%
07:00 +12°C° 0.2 mm 2 m/s 742 mmHg 96%
08:00 +12°C° 0.2 mm 2 m/s 742 mmHg 96%
09:00 +13°C° 0.1 mm 2 m/s 742 mmHg 91%
10:00 +13°C° 0.1 mm 3 m/s 742 mmHg 86%
11:00 +14°C° 0.1 mm 3 m/s 743 mmHg 81%
12:00 +14°C° 0.1 mm 3 m/s 743 mmHg 82%
13:00 +13°C° 0.1 mm 3 m/s 743 mmHg 83%
14:00 +13°C° 0.1 mm 3 m/s 743 mmHg 84%
15:00 +13°C° 0.1 mm 3 m/s 743 mmHg 85%
16:00 +14°C° 0.1 mm 2 m/s 744 mmHg 86%
17:00 +14°C° 0.1 mm 2 m/s 744 mmHg 87%
18:00 +14°C° 0 mm 2 m/s 744 mmHg 89%
19:00 +13°C° 0 mm 2 m/s 744 mmHg 91%
20:00 +13°C° 0 mm 2 m/s 744 mmHg 93%
21:00 +12°C° 0 mm 2 m/s 744 mmHg 93%
22:00 +12°C° 0 mm 2 m/s 745 mmHg 94%
23:00 +10°C° 0 mm 2 m/s 745 mmHg 94%

15 Mai, Sâmbătă

Timp Temperatura Precipitaţii Vânt Presiune Umiditate
00:00 +10°C° 0 mm 2 m/s 745 mmHg 94%
01:00 +10°C° 0 mm 2 m/s 745 mmHg 94%
02:00 +9°C° 0 mm 2 m/s 745 mmHg 94%
03:00 +9°C° 0 mm 2 m/s 745 mmHg 94%
04:00 +9°C° 0 mm 2 m/s 746 mmHg 94%
05:00 +9°C° 0 mm 2 m/s 746 mmHg 94%
06:00 +10°C° 0 mm 2 m/s 746 mmHg 89%
07:00 +13°C° 0 mm 2 m/s 746 mmHg 84%
08:00 +15°C° 0 mm 2 m/s 747 mmHg 80%
09:00 +16°C° 0 mm 2 m/s 747 mmHg 75%
10:00 +17°C° 0 mm 2 m/s 747 mmHg 70%
11:00 +18°C° 0 mm 3 m/s 747 mmHg 65%
12:00 +18°C° 0.1 mm 3 m/s 747 mmHg 64%
13:00 +18°C° 0.1 mm 3 m/s 747 mmHg 63%
14:00 +19°C° 0.1 mm 3 m/s 747 mmHg 62%
15:00 +19°C° 0.2 mm 3 m/s 747 mmHg 63%
16:00 +19°C° 0.2 mm 3 m/s 747 mmHg 64%
17:00 +19°C° 0.2 mm 2 m/s 747 mmHg 65%
18:00 +17°C° 0.2 mm 2 m/s 747 mmHg 71%
19:00 +16°C° 0.2 mm 2 m/s 747 mmHg 78%
20:00 +14°C° 0.2 mm 2 m/s 747 mmHg 85%
21:00 +13°C° 0 mm 2 m/s 747 mmHg 86%
22:00 +13°C° 0 mm 1 m/s 747 mmHg 86%
23:00 +12°C° 0 mm 1 m/s 747 mmHg 87%
Arată mai mult

Formular de consimțământ

Meteoprog și furnizorii noștri de servicii pot stoca și accesa date personale, precum cookies, identificatori de dispozitiv sau alte tehnologii similare pe dispozitivul dumneavoastră și procesa astfel de date pentru a personaliza conținutul și reclamele, dar și pentru a oferi caracteristici de social media și pentru a analiza traficul.

  • Stocarea și/sau accesarea informațiilor pe dispozitivul dumneavoastră

    Cookies, identificatori de dispozitiv sau alte informații pot fi stocate sau accesate pe dispozitiv în scopurile indicate mai sus.

  • Reclame și conținut personalizat, evaluarea reclamelor și a conținutului, informații despre audiențe și dezvoltarea produselor

    Reclamele și conținutul pot fi personalizate pe baza unui profil. Pot fi adăugate date suplimentare pentru a personaliza mai bine reclamele și conținutul. Performanța reclamelor și conținutului poate fi măsurată. Pot fi obținute informații despre utilizatorii care au văzut reclamele și conținutul. Aceste date pot fi utilizate pentru a dezvolta sau îmbunătăți experiența utilizatorilor, sistemele și software-ul.

Dând clic pe ‘Sunt de acord’, permiteți utilizarea cookie-urilor menționate, a identificatorilor de dispozitiv, balizelor web sau altor tehnologii similare. Setările pot fi modificate din browser-ul dispozitivului dumneavoastră.

În anumite scopuri, interesele legitime pot prima asupra consimțământului. Puteți citi mai multe informații în acest sens în Politica privind Confidențialitatea Datelor și Cookie.